Time,TemperatureF,DewpointF,PressureIn,WindDirection,WindDirectionDegrees,WindSpeedMPH,WindSpeedGustMPH,Humidity,HourlyPrecipIn,Conditions,Clouds,dailyrainin,SolarRadiationWatts/m^2,SoftwareType,DateUTC
2013-03-13 00:11:00,32.2,20.0,30.19,North,360,0.0,0.0,62,0.00,,,0.00,0,weatherlink.com 1.10,2013-03-13 06:11:00,
2013-03-13 00:26:00,32.0,21.0,30.18,North,360,0.0,2.0,63,0.00,,,0.00,0,weatherlink.com 1.10,2013-03-13 06:26:00,
2013-03-13 00:42:00,32.6,20.0,30.18,North,360,0.0,2.0,61,0.00,,,0.00,0,weatherlink.com 1.10,2013-03-13 06:42:00,
2013-03-13 00:57:00,32.4,21.0,30.17,North,360,0.0,2.0,62,0.00,,,0.00,0,weatherlink.com 1.10,2013-03-13 06:57:00,
2013-03-13 01:12:00,32.1,21.0,30.17,North,360,0.0,1.0,63,0.00,,,0.00,0,weatherlink.com 1.10,2013-03-13 07:12:00,
2013-03-13 01:27:00,31.7,20.0,30.17,North,360,0.0,2.0,63,0.00,,,0.00,0,weatherlink.com 1.10,2013-03-13 07:27:00,
2013-03-13 01:42:00,31.4,20.0,30.17,North,360,1.0,1.0,63,0.00,,,0.00,0,weatherlink.com 1.10,2013-03-13 07:42:00,
2013-03-13 01:57:00,30.3,20.0,30.17,North,360,0.0,2.0,66,0.00,,,0.00,0,weatherlink.com 1.10,2013-03-13 07:57:00,
2013-03-13 02:12:00,30.4,20.0,30.17,North,360,0.0,1.0,66,0.00,,,0.00,0,weatherlink.com 1.10,2013-03-13 08:12:00,
2013-03-13 02:27:00,30.6,21.0,30.18,ESE,111,1.0,2.0,68,0.00,,,0.00,0,weatherlink.com 1.10,2013-03-13 08:27:00,
2013-03-13 02:42:00,30.9,21.0,30.19,North,360,0.0,2.0,68,0.00,,,0.00,0,weatherlink.com 1.10,2013-03-13 08:42:00,
2013-03-13 02:57:00,32.2,21.0,30.18,North,360,2.0,4.0,64,0.00,,,0.00,0,weatherlink.com 1.10,2013-03-13 08:57:00,
2013-03-13 03:12:00,32.5,21.0,30.18,North,360,2.0,5.0,64,0.00,,,0.00,0,weatherlink.com 1.10,2013-03-13 09:12:00,
2013-03-13 03:27:00,32.2,22.0,30.19,North,360,0.0,4.0,65,0.00,,,0.00,0,weatherlink.com 1.10,2013-03-13 09:27:00,
2013-03-13 03:42:00,31.9,22.0,30.19,North,360,1.0,3.0,66,0.00,,,0.00,0,weatherlink.com 1.10,2013-03-13 09:42:00,
2013-03-13 03:57:00,32.0,21.0,30.18,North,360,1.0,3.0,65,0.00,,,0.00,0,weatherlink.com 1.10,2013-03-13 09:57:00,
2013-03-13 04:12:00,31.6,21.0,30.18,North,360,1.0,1.0,66,0.00,,,0.00,0,weatherlink.com 1.10,2013-03-13 10:12:00,
2013-03-13 04:27:00,31.5,21.0,30.17,North,360,0.0,3.0,66,0.00,,,0.00,0,weatherlink.com 1.10,2013-03-13 10:27:00,
2013-03-13 04:42:00,30.8,21.0,30.17,North,360,0.0,2.0,68,0.00,,,0.00,0,weatherlink.com 1.10,2013-03-13 10:42:00,
2013-03-13 04:57:00,31.1,22.0,30.17,North,360,0.0,2.0,68,0.00,,,0.00,0,weatherlink.com 1.10,2013-03-13 10:57:00,
2013-03-13 05:12:00,31.3,21.0,30.17,North,360,1.0,2.0,67,0.00,,,0.00,0,weatherlink.com 1.10,2013-03-13 11:12:00,
2013-03-13 05:27:00,30.3,22.0,30.17,North,360,0.0,2.0,70,0.00,,,0.00,0,weatherlink.com 1.10,2013-03-13 11:27:00,
2013-03-13 05:42:00,30.1,21.0,30.17,North,360,1.0,2.0,70,0.00,,,0.00,0,weatherlink.com 1.10,2013-03-13 11:42:00,
2013-03-13 05:57:00,30.2,22.0,30.18,North,360,0.0,3.0,70,0.00,,,0.00,0,weatherlink.com 1.10,2013-03-13 11:57:00,
2013-03-13 06:12:00,30.7,22.0,30.18,North,360,1.0,2.0,70,0.00,,,0.00,0,weatherlink.com 1.10,2013-03-13 12:12:00,
2013-03-13 06:27:00,30.0,21.0,30.18,North,360,0.0,2.0,70,0.00,,,0.00,0,weatherlink.com 1.10,2013-03-13 12:27:00,
2013-03-13 06:42:00,31.0,22.0,30.19,North,360,1.0,3.0,69,0.00,,,0.00,0,weatherlink.com 1.10,2013-03-13 12:42:00,
2013-03-13 06:57:00,31.9,22.0,30.19,North,360,2.0,7.0,67,0.00,,,0.00,0,weatherlink.com 1.10,2013-03-13 12:57:00,
2013-03-13 07:12:00,31.3,22.0,30.19,North,360,1.0,3.0,68,0.00,,,0.00,0,weatherlink.com 1.10,2013-03-13 13:12:00,
2013-03-13 07:27:00,32.3,22.0,30.18,North,360,0.0,5.0,65,0.00,,,0.00,7,weatherlink.com 1.10,2013-03-13 13:27:00,
2013-03-13 07:42:00,30.8,21.0,30.19,North,360,0.0,0.0,68,0.00,,,0.00,11,weatherlink.com 1.10,2013-03-13 13:42:00,
2013-03-13 07:57:00,31.4,21.0,30.20,North,360,2.0,5.0,66,0.00,,,0.00,14,weatherlink.com 1.10,2013-03-13 13:57:00,
2013-03-13 08:12:00,31.7,21.0,30.20,North,360,0.0,2.0,65,0.00,,,0.00,16,weatherlink.com 1.10,2013-03-13 14:12:00,
2013-03-13 08:27:00,32.0,21.0,30.22,North,360,0.0,2.0,65,0.00,,,0.00,30,weatherlink.com 1.10,2013-03-13 14:27:00,
2013-03-13 08:42:00,32.4,21.0,30.23,North,360,0.0,1.0,64,0.00,,,0.00,125,weatherlink.com 1.10,2013-03-13 14:42:00,
2013-03-13 08:57:00,33.0,22.0,30.23,North,360,2.0,4.0,63,0.00,,,0.00,42,weatherlink.com 1.10,2013-03-13 14:57:00,
2013-03-13 09:12:00,33.8,22.0,30.22,North,360,2.0,3.0,62,0.00,,,0.00,162,weatherlink.com 1.10,2013-03-13 15:12:00,
2013-03-13 09:27:00,34.8,23.0,30.22,North,360,2.0,5.0,62,0.00,,,0.00,91,weatherlink.com 1.10,2013-03-13 15:27:00,
2013-03-13 09:42:00,35.8,23.0,30.21,North,360,1.0,6.0,59,0.00,,,0.00,49,weatherlink.com 1.10,2013-03-13 15:42:00,
2013-03-13 09:57:00,36.9,23.0,30.21,North,360,3.0,5.0,57,0.00,,,0.00,362,weatherlink.com 1.10,2013-03-13 15:57:00,
2013-03-13 10:12:00,37.8,23.0,30.22,SW,233,1.0,6.0,55,0.00,,,0.00,552,weatherlink.com 1.10,2013-03-13 16:12:00,
2013-03-13 10:28:00,39.2,22.0,30.23,WNW,294,3.0,5.0,51,0.00,,,0.00,599,weatherlink.com 1.10,2013-03-13 16:28:00,
2013-03-13 10:43:00,40.6,23.0,30.23,NNW,336,0.0,3.0,49,0.00,,,0.00,642,weatherlink.com 1.10,2013-03-13 16:43:00,
2013-03-13 10:58:00,41.9,23.0,30.22,WNW,288,0.0,3.0,48,0.00,,,0.00,686,weatherlink.com 1.10,2013-03-13 16:58:00,
2013-03-13 11:13:00,42.5,23.0,30.22,NW,306,1.0,4.0,46,0.00,,,0.00,722,weatherlink.com 1.10,2013-03-13 17:13:00,
2013-03-13 11:28:00,43.0,23.0,30.22,NW,317,0.0,4.0,45,0.00,,,0.00,756,weatherlink.com 1.10,2013-03-13 17:28:00,
2013-03-13 11:43:00,43.2,21.0,30.22,NW,317,2.0,5.0,41,0.00,,,0.00,788,weatherlink.com 1.10,2013-03-13 17:43:00,
2013-03-13 11:58:00,44.4,22.0,30.22,NW,306,0.0,2.0,41,0.00,,,0.00,810,weatherlink.com 1.10,2013-03-13 17:58:00,
2013-03-13 12:14:00,44.9,22.0,30.22,NW,306,2.0,5.0,41,0.00,,,0.00,835,weatherlink.com 1.10,2013-03-13 18:14:00,
2013-03-13 12:28:00,45.9,23.0,30.21,West,267,2.0,4.0,40,0.00,,,0.00,856,weatherlink.com 1.10,2013-03-13 18:28:00,
2013-03-13 12:43:00,47.3,22.0,30.20,WNW,294,1.0,2.0,37,0.00,,,0.00,872,weatherlink.com 1.10,2013-03-13 18:43:00,
2013-03-13 12:58:00,46.6,21.0,30.20,West,279,2.0,3.0,37,0.00,,,0.00,879,weatherlink.com 1.10,2013-03-13 18:58:00,
2013-03-13 13:13:00,47.2,21.0,30.19,West,272,4.0,5.0,36,0.00,,,0.00,884,weatherlink.com 1.10,2013-03-13 19:13:00,
2013-03-13 13:28:00,48.4,22.0,30.18,West,259,2.0,4.0,35,0.00,,,0.00,886,weatherlink.com 1.10,2013-03-13 19:28:00,
2013-03-13 13:43:00,48.5,23.0,30.18,NNW,332,2.0,5.0,37,0.00,,,0.00,884,weatherlink.com 1.10,2013-03-13 19:43:00,
2013-03-13 13:58:00,48.7,21.0,30.16,NW,320,3.0,3.0,34,0.00,,,0.00,877,weatherlink.com 1.10,2013-03-13 19:58:00,
2013-03-13 14:13:00,50.6,22.0,30.16,North,360,4.0,5.0,33,0.00,,,0.00,865,weatherlink.com 1.10,2013-03-13 20:13:00,
2013-03-13 14:28:00,50.2,23.0,30.16,North,360,1.0,7.0,35,0.00,,,0.00,847,weatherlink.com 1.10,2013-03-13 20:28:00,
2013-03-13 14:43:00,49.5,20.0,30.16,WNW,302,2.0,6.0,31,0.00,,,0.00,830,weatherlink.com 1.10,2013-03-13 20:43:00,
2013-03-13 14:58:00,50.3,21.0,30.16,NW,311,0.0,6.0,32,0.00,,,0.00,805,weatherlink.com 1.10,2013-03-13 20:58:00,
2013-03-13 15:13:00,50.6,20.0,30.15,NNW,328,2.0,5.0,30,0.00,,,0.00,779,weatherlink.com 1.10,2013-03-13 21:13:00,
2013-03-13 15:29:00,50.8,22.0,30.15,NW,316,1.0,5.0,32,0.00,,,0.00,749,weatherlink.com 1.10,2013-03-13 21:29:00,
2013-03-13 15:44:00,50.7,20.0,30.16,WNW,286,3.0,4.0,30,0.00,,,0.00,714,weatherlink.com 1.10,2013-03-13 21:44:00,
2013-03-13 15:59:00,51.8,17.0,30.16,WSW,254,1.0,5.0,25,0.00,,,0.00,677,weatherlink.com 1.10,2013-03-13 21:59:00,
2013-03-13 16:14:00,52.0,20.0,30.15,WNW,291,2.0,4.0,28,0.00,,,0.00,635,weatherlink.com 1.10,2013-03-13 22:14:00,
2013-03-13 16:29:00,51.1,18.0,30.15,WSW,240,1.0,6.0,27,0.00,,,0.00,589,weatherlink.com 1.10,2013-03-13 22:29:00,
2013-03-13 16:44:00,50.8,19.0,30.15,NW,305,2.0,5.0,28,0.00,,,0.00,541,weatherlink.com 1.10,2013-03-13 22:44:00,
2013-03-13 16:59:00,50.4,17.0,30.15,WSW,247,2.0,4.0,27,0.00,,,0.00,496,weatherlink.com 1.10,2013-03-13 22:59:00,
2013-03-13 17:14:00,50.5,17.0,30.15,WNW,288,1.0,6.0,27,0.00,,,0.00,408,weatherlink.com 1.10,2013-03-13 23:14:00,
2013-03-13 17:44:00,48.3,22.0,30.15,WNW,293,1.0,4.0,35,0.00,,,0.00,188,weatherlink.com 1.10,2013-03-13 23:44:00,
2013-03-13 17:59:00,47.2,21.0,30.15,North,360,0.0,3.0,36,0.00,,,0.00,81,weatherlink.com 1.10,2013-03-13 23:59:00,
2013-03-13 18:14:00,46.3,21.0,30.16,North,360,0.0,3.0,36,0.00,,,0.00,81,weatherlink.com 1.10,2013-03-14 00:14:00,
2013-03-13 18:29:00,46.3,21.0,30.16,North,360,0.0,0.0,37,0.00,,,0.00,77,weatherlink.com 1.10,2013-03-14 00:29:00,
2013-03-13 18:44:00,46.1,22.0,30.16,North,360,0.0,3.0,39,0.00,,,0.00,40,weatherlink.com 1.10,2013-03-14 00:44:00,
2013-03-13 18:59:00,44.3,21.0,30.16,North,360,0.0,2.0,40,0.00,,,0.00,9,weatherlink.com 1.10,2013-03-14 00:59:00,
2013-03-13 19:14:00,43.5,20.0,30.16,North,360,1.0,1.0,40,0.00,,,0.00,5,weatherlink.com 1.10,2013-03-14 01:14:00,
2013-03-13 19:29:00,42.4,21.0,30.16,North,360,0.0,2.0,42,0.00,,,0.00,0,weatherlink.com 1.10,2013-03-14 01:29:00,
2013-03-13 19:44:00,41.7,22.0,30.17,North,360,0.0,0.0,45,0.00,,,0.00,0,weatherlink.com 1.10,2013-03-14 01:44:00,
2013-03-13 19:59:00,40.7,21.0,30.17,North,360,0.0,2.0,46,0.00,,,0.00,0,weatherlink.com 1.10,2013-03-14 01:59:00,
2013-03-13 20:14:00,40.1,21.0,30.17,North,360,0.0,0.0,47,0.00,,,0.00,0,weatherlink.com 1.10,2013-03-14 02:14:00,
2013-03-13 20:29:00,40.0,21.0,30.17,North,360,1.0,2.0,46,0.00,,,0.00,0,weatherlink.com 1.10,2013-03-14 02:29:00,
2013-03-13 20:44:00,39.7,20.0,30.17,North,360,0.0,1.0,46,0.00,,,0.00,0,weatherlink.com 1.10,2013-03-14 02:44:00,
2013-03-13 20:59:00,38.7,20.0,30.17,North,360,0.0,1.0,48,0.00,,,0.00,0,weatherlink.com 1.10,2013-03-14 02:59:00,
2013-03-13 21:14:00,39.0,20.0,30.18,North,360,0.0,1.0,47,0.00,,,0.00,0,weatherlink.com 1.10,2013-03-14 03:14:00,
2013-03-13 21:29:00,38.8,20.0,30.18,North,360,0.0,0.0,48,0.00,,,0.00,0,weatherlink.com 1.10,2013-03-14 03:29:00,
2013-03-13 21:44:00,38.2,20.0,30.18,North,360,0.0,0.0,49,0.00,,,0.00,0,weatherlink.com 1.10,2013-03-14 03:44:00,
2013-03-13 21:59:00,38.3,20.0,30.18,North,360,0.0,1.0,49,0.00,,,0.00,0,weatherlink.com 1.10,2013-03-14 03:59:00,
2013-03-13 22:14:00,38.5,20.0,30.19,North,360,0.0,0.0,47,0.00,,,0.00,0,weatherlink.com 1.10,2013-03-14 04:14:00,
2013-03-13 22:30:00,38.7,19.0,30.19,North,360,0.0,0.0,46,0.00,,,0.00,0,weatherlink.com 1.10,2013-03-14 04:30:00,
2013-03-13 22:44:00,39.1,20.0,30.19,North,360,0.0,1.0,46,0.00,,,0.00,0,weatherlink.com 1.10,2013-03-14 04:44:00,
2013-03-13 22:59:00,39.1,21.0,30.19,North,360,0.0,2.0,48,0.00,,,0.00,0,weatherlink.com 1.10,2013-03-14 04:59:00,
2013-03-13 23:14:00,39.2,19.0,30.19,North,360,0.0,2.0,45,0.00,,,0.00,0,weatherlink.com 1.10,2013-03-14 05:14:00,
2013-03-13 23:29:00,38.2,19.0,30.19,North,360,0.0,0.0,47,0.00,,,0.00,0,weatherlink.com 1.10,2013-03-14 05:29:00,
2013-03-13 23:44:00,37.1,20.0,30.18,North,360,0.0,2.0,50,0.00,,,0.00,0,weatherlink.com 1.10,2013-03-14 05:44:00,
2013-03-13 23:59:00,37.6,20.0,30.18,North,360,1.0,2.0,50,0.00,,,0.00,0,weatherlink.com 1.10,2013-03-14 05:59:00,